Simultaneous Nadir Overpasses (SNOs) Predictions

Prediction of SNOs between NOAA-19 and TERRA Satellite Orbit:

Table of predicted SNOs for the next 14.0 days since TLE Epoch: 4/5/2013
Index Date (NOAA-19) Time (NOAA-19) Lat,Lon (NOAA-19) SZA (NOAA-19 ) Date (TERRA) Time (TERRA) Lat,Lon (TERRA) SZA (TERRA ) Distance(km) Time Diff (sec)
1 04/07/2013 02:31:34 -69.40, -38.16 117.56 04/07/2013 02:32:13 -69.38, -38.12 117.58 3.07 39
2 04/07/2013 03:22:33 69.25, 129.30 62.28 04/07/2013 03:21:41 69.22, 129.32 62.25 3.27 52
3 04/09/2013 07:15:57 -69.38,-109.22 118.40 04/09/2013 07:16:31 -69.38,-109.19 118.40 1.06 34
4 04/09/2013 08:06:56 69.20, 58.29 61.41 04/09/2013 08:05:59 69.22, 58.24 61.43 2.91 57
5 04/11/2013 12:00:20 -69.37, 179.72 119.22 04/11/2013 12:00:49 -69.38, 179.73 119.22 1.21 29
6 04/11/2013 12:51:20 69.21, -12.82 60.61 04/11/2013 12:50:17 69.21, -12.84 60.61 1.05 63
7 04/13/2013 16:44:43 -69.36, 108.65 120.03 04/13/2013 16:45:07 -69.36, 108.64 120.03 0.41 24
8 04/13/2013 17:35:44 69.23, -83.93 59.83 04/13/2013 17:34:34 69.25, -83.87 59.85 3.43 70
9 04/15/2013 21:29:06 -69.36, 37.56 120.82 04/15/2013 21:29:25 -69.34, 37.53 120.84 3.07 19
10 04/15/2013 22:20:06 69.15,-154.90 58.96 04/15/2013 22:18:53 69.17,-155.05 58.98 6.27 73
11 04/18/2013 02:13:29 -69.37, -33.53 121.58 04/18/2013 02:13:42 -69.36, -33.52 121.60 1.66 13
12 04/18/2013 03:04:25 68.92, 134.34 57.96 04/18/2013 03:03:13 69.02, 133.69 58.06 28.47 72
